CW6682 Weather Reports


Display with metric or nautical units.
time (UTC)temp
F
wind
direction
speed
MPH
gust
MPH
rain 1hr
in
rain 24hr
in
rain mn
in
humidity
%
barometer
mb
20260506044538 68 265 1.0 0.0 0.00 0.00 0.00 29 1009.9
20260506043037 69 265 3.0 0.0 0.00 0.00 0.00 29 1009.8
20260506041537 69 265 4.0 0.0 0.00 0.00 0.00 28 1009.6
20260506040036 70 265 5.0 0.0 0.00 0.00 0.00 27 1009.4
20260506034542 70 266 6.0 0.0 0.00 0.00 0.00 27 1009.3
20260506033034 70 261 5.0 0.0 0.00 0.00 0.00 27 1009.0
20260506031535 70 265 4.0 0.0 0.00 0.00 0.00 26 1008.7
20260506030040 71 259 5.0 0.0 0.00 0.00 0.00 26 1008.6
20260506024555 71 258 6.0 0.0 0.00 0.00 0.00 26 1008.3
20260506023033 71 255 6.0 0.0 0.00 0.00 0.00 26 1008.2
20260506021532 72 288 5.0 0.0 0.00 0.00 0.00 26 1007.9
20260506020031 72 268 6.0 0.0 0.00 0.00 0.00 26 1007.8
20260506014532 73 257 8.0 0.0 0.00 0.00 0.00 25 1007.6
20260506013040 73 283 7.0 0.0 0.00 0.00 0.00 25 1007.6
20260506011530 74 253 7.0 0.0 0.00 0.00 0.00 25 1007.4
20260506010031 74 304 8.0 0.0 0.00 0.00 0.00 25 1007.2
20260506004531 74 248 7.0 0.0 0.00 0.00 0.00 25 1007.3
20260506003034 74 304 7.0 0.0 0.00 0.00 0.00 26 1007.1
20260506001527 74 259 8.0 0.0 0.00 0.00 0.00 26 1007.0
20260506000027 74 294 8.0 0.0 0.00 0.00 0.00 26 1007.0
20260505234533 74 261 7.0 0.0 0.00 0.00 0.00 25 1007.1
20260505233025 73 253 9.0 0.0 0.00 0.00 0.00 27 1007.0
20260505231525 74 256 11.0 0.0 0.00 0.00 0.00 27 1007.1
20260505230038 73 267 8.0 0.0 0.00 0.00 0.00 28 1006.9
20260505224524 75 263 8.0 0.0 0.00 0.00 0.00 27 1007.0
20260505223025 75 287 8.0 0.0 0.00 0.00 0.00 28 1007.3
20260505221522 75 250 6.0 0.0 0.00 0.00 0.00 28 1007.3
20260505220021 75 238 8.0 0.0 0.00 0.00 0.00 28 1007.5
20260505214522 74 277 8.0 0.0 0.00 0.00 0.00 28 1007.5
20260505213018 75 252 7.0 0.0 0.00 0.00 0.00 28 1007.7
20260505211518 75 246 9.0 0.0 0.00 0.00 0.00 27 1007.9
20260505210017 75 281 8.0 0.0 0.00 0.00 0.00 28 1008.0
20260505204514 74 265 8.0 0.0 0.00 0.00 0.00 31 1008.1
20260505203012 74 250 9.0 0.0 0.00 0.00 0.00 33 1008.2
20260505201511 73 236 7.0 0.0 0.00 0.00 0.00 34 1008.5
20260505200025 72 279 8.0 0.0 0.00 0.00 0.00 38 1008.4
20260505194509 73 277 7.0 0.0 0.00 0.00 0.00 38 1008.4
20260505193009 72 232 7.0 0.0 0.00 0.00 0.00 37 1008.6
20260505191507 72 222 5.0 0.0 0.00 0.00 0.00 38 1008.9
20260505190003 72 205 8.0 0.0 0.00 0.00 0.00 38 1009.0
20260505184502 71 223 7.0 0.0 0.00 0.00 0.00 41 1009.1
20260505183000 71 256 6.0 0.0 0.00 0.00 0.00 41 1009.1
20260505181558 70 251 4.0 0.0 0.00 0.00 0.00 43 1009.2
20260505180103 69 284 2.0 0.0 0.00 0.00 0.00 50 1009.2
20260505174559 68 257 4.0 0.0 0.00 0.00 0.00 51 1009.2
20260505173052 67 272 4.0 0.0 0.00 0.00 0.00 53 1009.2
20260505171552 68 275 5.0 0.0 0.00 0.00 0.00 53 1009.2
20260505170050 68 219 4.0 0.0 0.00 0.00 0.00 51 1009.2
20260505164559 67 237 5.0 0.0 0.00 0.00 0.00 53 1009.2
20260505163055 67 250 6.0 0.0 0.00 0.00 0.00 53 1009.3
20260505161547 66 218 6.0 0.0 0.00 0.00 0.00 55 1009.4
20260505153057 66 199 2.0 0.0 0.00 0.00 0.00 57 1009.2
20260505151550 65 195 0.0 0.0 0.00 0.00 0.00 60 1009.1
20260505124527 63 144 4.0 0.0 0.00 0.00 0.00 72 1008.2
20260505123023 63 144 5.0 0.0 0.00 0.00 0.00 72 1008.2
20260505121522 63 146 6.0 0.0 0.00 0.00 0.00 72 1008.1
20260505120019 63 145 6.0 0.0 0.00 0.00 0.00 72 1008.1
20260505114531 63 138 5.0 0.0 0.00 0.00 0.00 71 1008.1
20260505113015 63 131 4.0 0.0 0.00 0.00 0.00 68 1008.0
20260505111514 64 128 3.0 0.0 0.00 0.00 0.00 66 1008.0
20260505101509 65 150 5.0 0.0 0.00 0.00 0.00 61 1009.1
20260505100010 65 165 3.0 0.0 0.00 0.00 0.00 61 1009.1
20260505094508 65 155 5.0 0.0 0.00 0.00 0.00 61 1009.1
20260505093007 64 173 4.0 0.0 0.00 0.00 0.00 63 1009.1
20260505091507 64 151 8.0 0.0 0.00 0.00 0.00 62 1009.2
20260505090003 65 169 7.0 0.0 0.00 0.00 0.00 60 1009.5
20260505084600 66 198 10.0 0.0 0.00 0.00 0.00 57 1009.5
20260505084502 66 165 10.0 0.0 0.00 0.00 0.00 57 1009.5
20260505083057 66 142 9.0 0.0 0.00 0.00 0.00 54 1009.6
20260505081601 67 168 9.0 0.0 0.00 0.00 0.00 51 1009.6
20260505080050 68 194 10.0 0.0 0.00 0.00 0.00 44 1009.7
20260505074605 69 192 5.0 0.0 0.00 0.00 0.00 43 1009.5
20260505073051 69 181 6.0 0.0 0.00 0.00 0.00 43 1009.6
20260505071541 69 186 6.0 0.0 0.00 0.00 0.00 41 1009.6
20260505070040 69 177 9.0 0.0 0.00 0.00 0.00 39 1009.6
20260505064538 70 175 9.0 0.0 0.00 0.00 0.00 35 1009.2
20260505063040 70 184 8.0 0.0 0.00 0.00 0.00 33 1009.0
20260505061536 71 160 8.0 0.0 0.00 0.00 0.00 30 1008.9
20260505060031 71 169 7.0 0.0 0.00 0.00 0.00 29 1008.8